Regional Weather Roundup
Issued by NWS

Home | Current Version | Previous Version | Graphics & Text | Print | Product List | Glossary On
Versions: 1 2 3 4 5 6 7 8 9 10 11 12 13 14 15 16 17 18 19 20 21 22 23 24 25 26 27 28 29 30 31 32 33 34 35 36 37 38 39 40 41 42 43 44 45 46 47 48 49 50
000
ASUS43 KMKX 281910
RWRWI

WISCONSIN REGIONAL WEATHER ROUNDUP
NATIONAL WEATHER SERVICE MILWAUKEE/SULLIVAN WI
100 PM CST SAT FEB 28 2015

NOTE: "FAIR" INDICATES FEW OR NO CLOUDS BELOW 12,000 FEET WITH NO
SIGNIFICANT WEATHER AND/OR OBSTRUCTIONS TO VISIBILITY.

WIZ001-002-006>008-014>016-023>028-282000-
NORTHWEST WISCONSIN

CITY           SKY/WX    TMP DP  RH WIND       PRES   REMARKS
SUPERIOR ARPT  MOSUNNY   22   4  47 SW15G24   30.41F WCI   8
ASHLAND        SUNNY     21  -1  38 SW15      30.43F WCI   8
HAYWARD        SUNNY     16   1  51 S17       30.43F WCI   0
SIREN          SUNNY     19   3  49 S12G20    30.43F WCI   7
CUMBERLAND     SUNNY     16   3  57 S13       30.44F WCI   2
RICE LAKE      SUNNY     15   2  56 S13       30.48F WCI   1
CHETEK         SUNNY     15   2  56 S9G16     30.48F WCI   3
LADYSMITH      SUNNY     16   1  51 SW12      30.49F WCI   3
EAU CLAIRE     SUNNY     15   0  51 S10       30.51F WCI   2
MENOMONIE      SUNNY     17   2  54 S13G18    30.51F WCI   3
NEW RICHMOND   SUNNY     17   4  57 S16       30.46F WCI   2
OSCEOLA        SUNNY     19   5  52 S14G20    30.48F WCI   6
$$

WIZ003>005-009-010-017-018-282000-
NORTH CENTRAL WISCONSIN

CITY           SKY/WX    TMP DP  RH WIND       PRES   REMARKS
MANITOWISH WTR SUNNY     17  -3  41 S12       30.39F WCI   4
ARBOR VITAE    SUNNY     19   1  44 S13       30.40F WCI   6
WOODRUFF       SUNNY     19   1  44 S13       30.40F WCI   6
RHINELANDER    SUNNY     17   0  47 SW9       30.43F WCI   6
EAGLE RIVER    SUNNY     18  -4  37 SW7       30.40F WCI   9
LAND O LAKES   SUNNY     21  -6  30 S9G18     30.39F WCI  10
PHILLIPS       SUNNY     16   0  48 SW13      30.42F WCI   2
TOMAHAWK       SUNNY     19  -4  35 CALM      30.45F
MEDFORD        SUNNY     12   0  60 S8        30.47F WCI   0
MERRILL        SUNNY     16  -2  44 SW9       30.48F WCI   5
$$

WIZ029-030-035-036-043>047-282000-
CENTRAL WISCONSIN

CITY           SKY/WX    TMP DP  RH WIND       PRES   REMARKS
WAUSAU         SUNNY     15   1  53 S9        30.49F WCI   3
MOSINEE        SUNNY     14   0  52 S9        30.51  WCI   2
MARSHFIELD     SUNNY     16  -4  41 SW13      30.49F WCI   2
STEVENS POINT  SUNNY     15  -2  48 S10       30.53F WCI   2
WAUPACA        SUNNY     22  -4  31 S3        30.57F
WAUTOMA        SUNNY     19  -3  38 SW9       30.57F WCI   8
WISC RAPIDS    SUNNY     16  -7  35 S12       30.54F WCI   3
CAMP DOUGLAS   MOSUNNY   16  -2  45 S10       30.55F WCI   3
$$

WIZ011>013-019>022-031-037>040-048>050-282000-
NORTHEAST WISCONSIN

CITY           SKY/WX    TMP DP  RH WIND       PRES   REMARKS
ANTIGO         SUNNY     15   0  52 SW5       30.47F WCI   7
SHAWANO        SUNNY     20  -1  40 SW12      30.56F WCI   8
OCONTO         SUNNY     20   2  46 SW10      30.58F WCI   8
STURGEON BAY   SUNNY     18   1  49 SW12      30.60F WCI   5
GREEN BAY      SUNNY     17   3  54 S12       30.59F WCI   4
MANITOWOC      SUNNY     21   3  45 S9        30.61F WCI  11
APPLETON       MOSUNNY   18   0  45 S8        30.58F WCI   7
CLINTONVILLE   SUNNY     19   1  45 SW9       30.56F WCI   9
OSHKOSH        SUNNY     17   2  51 S9        30.58F WCI   6
$$

WIZ032>034-041-042-053>061-282000-
SOUTHWEST WISCONSIN

CITY           SKY/WX    TMP DP  RH WIND       PRES   REMARKS
LA CROSSE      SUNNY     15   1  53 SE8       30.57F WCI   4
SPARTA         SUNNY     17  -1  46 S12       30.56F WCI   4
VIROQUA        SUNNY     14  -1  51 S6        30.52F WCI   5
BOSCOBEL       SUNNY     16  -4  41 S8        30.61F WCI   5
PRAIRIE DU CHI SUNNY     15  -4  42 SE7       30.59F WCI   5
PLATTEVILLE    SUNNY     12   0  59 CALM      30.58F
$$

WIZ056-057-062-063-064-067-068-282000-
SOUTH CENTRAL WISCONSIN

CITY           SKY/WX    TMP DP  RH WIND       PRES   REMARKS
REEDSBURG      SUNNY     15  -1  50 S9        30.57F WCI   3
BARABOO/DELLS  SUNNY     15  -3  44 S9        30.56F WCI   3
LONE ROCK      SUNNY     14  -4  44 S7        30.60F WCI   4
MINERAL POINT  SUNNY     14   0  52 S8        30.56F WCI   3
MADISON        PTSUNNY   13  -2  51 S13       30.60F WCI  -2
MIDDLETON      SUNNY     17  -4  40 S8        30.59F WCI   7
WATERTOWN      SUNNY     15   0  50 S6        30.60F WCI   7
MONROE         SUNNY     14   5  67 S8        30.57F WCI   3
JANESVILLE     SUNNY     18   1  49 S7        30.61F WCI   8
$$

WIZ051-052-058>065-066-070>072-282000-
SOUTHEAST WISCONSIN

CITY           SKY/WX    TMP DP  RH WIND       PRES   REMARKS
MILWAUKEE      MOSUNNY   16  -2  45 SW14      30.64F WCI   2
WAUKESHA       SUNNY     16  -4  41 SW6       30.62F WCI   7
MILWAUKEE/TIMM SUNNY     16  -6  38 S9        30.68  WCI   4
RACINE         SUNNY     16  -1  47 VRB7      30.65F WCI   6
BURLINGTON     SUNNY     16  -1  47 SW7       30.62F WCI   6
KENOSHA        SUNNY     17   1  49 SW6       30.63F WCI   9
FOND DU LAC    SUNNY     18  -1  43 S15       30.59F WCI   4
SHEBOYGAN      SUNNY     18  -2  41 SW13      30.60F WCI   5
WEST BEND      SUNNY     19  -4  35 S5        30.60F WCI  13
JUNEAU         SUNNY     14  -1  49 S14       30.61F WCI   0
$$

LSZ147-162-282000-
LAKE SUPERIOR

STATION/POSITION TIME  TEMP    WIND        PRES    WAVE
                       AIR SEA DIR/SP/G            HT/PER
                 (UTC) (F)     (DEG/KT/KT) (MB)    (FT/S)
DEVILS ISLAND    1900   17     200/  7/  9 1031.5F
PORT WING        1840   20     220/  9/ 15 1030.5F
SAXON HARBOR     1840   22     190/  5/ 14 1030.8F
$$

LMZ867-665-643>646-282000-
LAKE MICHIGAN

STATION/POSITION TIME  TEMP    WIND        PRES    WAVE
                       AIR SEA DIR/SP/G            HT/PER
                 (UTC) (F)     (DEG/KT/KT) (MB)    (FT/S)
NORTHPORT PIER   1800   19     200/  7/ 10 1035.9F
SISTER BAY       1813   26     240/ 11/ 12   N/A
KEWAUNEE LAKESHO 1800   16     210/  7/ 11 1036.2F
SHEBOYGAN LAKESH 1900   16     170/ 13/ 15 1038.3F
PORT WASHINGTON  1800   21     180/  8/ 11 1038.3
MILWAUKEE LAKESH 1800   15     190/  9/ 11   N/A
KENOSHA   LAKESH 1900   17     150/  9/ 13 1037.3F
$$

TC  - TEMPERATURE IN CELSIUS
VSB - VISIBILITY IN STATUTE MILES
WCI - WIND CHILL INDEX
HX  - HEAT INDEX




USA.gov is the U.S. government's official web portal to all federal, state and local government web resources and services.